Regional Weather Roundup
Issued by NWS Sioux Falls, SD

Home | Current Version | Previous Version | Text Only | Print | Product List | Glossary On
Versions: 1 2 3 4 5 6 7 8 9 10 11 12 13 14 15 16 17 18 19 20 21 22 23 24 25 26 27 28 29 30 31 32 33 34 35 36 37 38 39 40 41 42 43 44 45 46 47 48 49 50
000
ASUS43 KFSD 310502
RWRFSD

WEATHER ROUNDUP FOR SE SOUTH DAKOTA/SW MINNESOTA/NW IOWA
NATIONAL WEATHER SERVICE SIOUX FALLS SD
1200 AM CDT TUE MAY 31 2016

NOTE: "FAIR" INDICATES FEW OR NO CLOUDS BELOW 12,000 FEET WITH NO
SIGNIFICANT WEATHER AND OR OBSTRUCTIONS TO VISIBILITY.


SDZ038>040-050-052>070-310600-
SOUTHEAST SOUTH DAKOTA

CITY           SKY/WX    TMP DP  RH WIND       PRES   REMARKS
BROOKINGS      TSTM      69  60  73 W21G29    29.80R
CHAMBERLAIN    NOT AVBL
HURON          CLOUDY    62  57  83 W15G23    29.77F
MADISON        TSTM      57  57 100 SW12G33   29.81R
MITCHELL       CLOUDY    67  57  70 SW13      29.81R
SIOUX FALLS    CLOUDY    69  59  70 S12G25    29.78R THUNDER
WINNER         FAIR      59  53  80 W10       29.92R
YANKTON        CLOUDY    68  54  60 W20G33    29.82R THUNDER
$$

MNZ071-072-080-081-089-090-097-098-310600-
SOUTHWEST MINNESOTA

CITY           SKY/WX    TMP DP  RH WIND       PRES   REMARKS
FAIRMONT       CLOUDY    64  55  72 SE21      29.87F
JACKSON        PTCLDY    68  54  60 S20       29.89F
LUVERNE        CLOUDY    68  54  60 S18       29.80F
MARSHALL       LGT RAIN  70  61  73 S21G31    29.79S
MONTEVIDEO     CLOUDY    73  57  56 S18G25    29.77F
PIPESTONE      CLOUDY    68  57  68 S14       29.82R
REDWOOD FALLS  LGT RAIN  69  60  73 S25G32    29.83R
TRACY          TSTM      66  62  86 SE8       29.84S
WINDOM         CLOUDY    70  57  64 S7G18     29.87R
WORTHINGTON    CLOUDY    66  59  78 SE17      29.85F
$$

IAZ001>003-012>014-020>022-031-032-NEZ013-014-SDZ071-310600-
NORTHWEST IOWA

CITY           SKY/WX    TMP DP  RH WIND       PRES   REMARKS
ESTHERVILLE    CLOUDY    65  56  72 SE21      29.89F
SIOUX CITY     CLOUDY    70  59  68 S16       29.83F
SPENCER        CLOUDY    68  57  68 SE12      29.87F
STORM LAKE     MOCLDY    68  57  68 S14G23    29.91S
$$

ABBREVIATIONS USED IN REMARKS
   TC - TEMPERATURE IN CELSIUS
  WCI - WIND CHILL INDEX
   HX - HEAT INDEX
  VSB - VISIBILITY





USA.gov is the U.S. government's official web portal to all federal, state and local government web resources and services.